Year,Month,Day,Hour,Minute,Value (Times are PST for windspeed in km/hr)
2015,08,26,00,00,0.70
2015,08,26,00,01,0.10
2015,08,26,00,02,0.00
2015,08,26,00,03,0.00
2015,08,26,00,04,0.00
2015,08,26,00,05,0.00
2015,08,26,00,06,0.00
2015,08,26,00,07,0.00
2015,08,26,00,08,0.00
2015,08,26,00,09,0.00
2015,08,26,00,10,0.00
2015,08,26,00,11,0.00
2015,08,26,00,12,0.00
2015,08,26,00,13,0.00
2015,08,26,00,14,0.00
2015,08,26,00,15,0.00
2015,08,26,00,16,0.00
2015,08,26,00,17,0.00
2015,08,26,00,18,0.00
2015,08,26,00,19,0.10
2015,08,26,00,20,0.00
2015,08,26,00,21,0.00
2015,08,26,00,22,0.00
2015,08,26,00,23,0.00
2015,08,26,00,24,0.00
2015,08,26,00,25,0.00
2015,08,26,00,26,0.00
2015,08,26,00,27,0.00
2015,08,26,00,28,0.00
2015,08,26,00,29,0.00
2015,08,26,00,30,0.00
2015,08,26,00,31,0.00
2015,08,26,00,32,0.00
2015,08,26,00,33,0.00
2015,08,26,00,34,0.00
2015,08,26,00,35,0.00
2015,08,26,00,36,0.00
2015,08,26,00,37,0.00
2015,08,26,00,38,0.00
2015,08,26,00,39,0.00
2015,08,26,00,40,0.00
2015,08,26,00,41,0.00
2015,08,26,00,42,0.00
2015,08,26,00,43,0.00
2015,08,26,00,44,0.00
2015,08,26,00,45,0.00
2015,08,26,00,46,0.00
2015,08,26,00,47,0.00
2015,08,26,00,48,0.00
2015,08,26,00,49,0.00
2015,08,26,00,50,0.00
2015,08,26,00,51,0.00
2015,08,26,00,52,0.00
2015,08,26,00,53,0.00
2015,08,26,00,54,0.00
2015,08,26,00,55,0.00
2015,08,26,00,56,0.00
2015,08,26,00,57,0.00
2015,08,26,00,58,0.00
2015,08,26,00,59,0.00
2015,08,26,01,00,0.00
2015,08,26,01,01,0.00
2015,08,26,01,02,0.00
2015,08,26,01,03,0.00
2015,08,26,01,04,0.00
2015,08,26,01,05,0.00
2015,08,26,01,06,0.00
2015,08,26,01,07,0.00
2015,08,26,01,08,0.00
2015,08,26,01,09,0.00
2015,08,26,01,10,0.00
2015,08,26,01,11,0.00
2015,08,26,01,12,0.00
2015,08,26,01,13,0.00
2015,08,26,01,14,0.00
2015,08,26,01,15,0.00
2015,08,26,01,16,0.00
2015,08,26,01,17,0.00
2015,08,26,01,18,0.00
2015,08,26,01,19,0.00
2015,08,26,01,20,0.00
2015,08,26,01,21,0.00
2015,08,26,01,22,0.00
2015,08,26,01,23,0.00
2015,08,26,01,24,0.00
2015,08,26,01,25,0.00
2015,08,26,01,26,0.00
2015,08,26,01,27,0.00
2015,08,26,01,28,0.00
2015,08,26,01,29,0.00
2015,08,26,01,30,0.00
2015,08,26,01,31,0.00
2015,08,26,01,32,0.00
2015,08,26,01,33,0.00
2015,08,26,01,34,0.00
2015,08,26,01,35,0.00
2015,08,26,01,36,0.00
2015,08,26,01,37,0.00
2015,08,26,01,38,0.00
2015,08,26,01,39,0.00
2015,08,26,01,40,0.00
2015,08,26,01,41,0.00
2015,08,26,01,42,0.00
2015,08,26,01,43,0.00
2015,08,26,01,44,0.00
2015,08,26,01,45,0.00
2015,08,26,01,46,0.00
2015,08,26,01,47,0.00
2015,08,26,01,48,0.00
2015,08,26,01,49,0.00
2015,08,26,01,50,0.00
2015,08,26,01,51,0.00
2015,08,26,01,52,0.00
2015,08,26,01,53,0.00
2015,08,26,01,54,0.00
2015,08,26,01,55,0.00
2015,08,26,01,56,0.00
2015,08,26,01,57,0.00
2015,08,26,01,58,0.00
2015,08,26,01,59,0.00
2015,08,26,02,00,0.00
2015,08,26,02,01,0.00
2015,08,26,02,02,0.00
2015,08,26,02,03,0.00
2015,08,26,02,04,0.00
2015,08,26,02,05,0.00
2015,08,26,02,06,0.00
2015,08,26,02,07,0.00
2015,08,26,02,08,0.00
2015,08,26,02,09,0.00
2015,08,26,02,10,0.00
2015,08,26,02,11,0.00
2015,08,26,02,12,0.00
2015,08,26,02,13,0.00
2015,08,26,02,14,0.00
2015,08,26,02,15,0.00
2015,08,26,02,16,0.00
2015,08,26,02,17,0.00
2015,08,26,02,18,0.00
2015,08,26,02,19,0.00
2015,08,26,02,20,0.00
2015,08,26,02,21,0.00
2015,08,26,02,22,0.00
2015,08,26,02,23,0.00
2015,08,26,02,24,0.00
2015,08,26,02,25,0.00
2015,08,26,02,26,0.00
2015,08,26,02,27,0.00
2015,08,26,02,28,0.00
2015,08,26,02,29,0.00
2015,08,26,02,30,0.00
2015,08,26,02,31,0.00
2015,08,26,02,32,0.00
2015,08,26,02,33,0.00
2015,08,26,02,34,0.00
2015,08,26,02,35,0.00
2015,08,26,02,36,0.00
2015,08,26,02,37,0.00
2015,08,26,02,38,0.00
2015,08,26,02,39,0.00
2015,08,26,02,40,0.00
2015,08,26,02,41,0.00
2015,08,26,02,42,0.00
2015,08,26,02,43,0.00
2015,08,26,02,44,0.00
2015,08,26,02,45,0.00
2015,08,26,02,46,0.00
2015,08,26,02,47,0.00
2015,08,26,02,48,0.00
2015,08,26,02,49,0.00
2015,08,26,02,50,0.00
2015,08,26,02,51,0.00
2015,08,26,02,52,0.00
2015,08,26,02,53,0.00
2015,08,26,02,54,0.00
2015,08,26,02,55,0.00
2015,08,26,02,56,0.00
2015,08,26,02,57,0.00
2015,08,26,02,58,0.00
2015,08,26,02,59,0.00
2015,08,26,03,00,0.00
2015,08,26,03,01,0.00
2015,08,26,03,02,0.00
2015,08,26,03,03,0.00
2015,08,26,03,04,0.00
2015,08,26,03,05,0.00
2015,08,26,03,06,0.00
2015,08,26,03,07,0.00
2015,08,26,03,08,0.00
2015,08,26,03,09,0.00
2015,08,26,03,10,0.00
2015,08,26,03,11,0.00
2015,08,26,03,12,0.00
2015,08,26,03,13,0.00
2015,08,26,03,14,0.00
2015,08,26,03,15,0.00
2015,08,26,03,16,0.00
2015,08,26,03,17,0.00
2015,08,26,03,18,0.00
2015,08,26,03,19,0.00
2015,08,26,03,20,0.00
2015,08,26,03,21,0.00
2015,08,26,03,22,0.00
2015,08,26,03,23,0.00
2015,08,26,03,24,0.00
2015,08,26,03,25,0.00
2015,08,26,03,26,0.00
2015,08,26,03,27,0.00
2015,08,26,03,28,0.00
2015,08,26,03,29,0.00
2015,08,26,03,30,0.00
2015,08,26,03,31,0.00
2015,08,26,03,32,0.00
2015,08,26,03,33,0.00
2015,08,26,03,34,0.00
2015,08,26,03,35,0.00
2015,08,26,03,36,0.00
2015,08,26,03,37,0.00
2015,08,26,03,38,0.00
2015,08,26,03,39,0.00
2015,08,26,03,40,0.00
2015,08,26,03,41,0.00
2015,08,26,03,42,0.00
2015,08,26,03,43,0.00
2015,08,26,03,44,0.00
2015,08,26,03,45,0.00
2015,08,26,03,46,0.00
2015,08,26,03,47,0.00
2015,08,26,03,48,0.00
2015,08,26,03,49,0.00
2015,08,26,03,50,0.00
2015,08,26,03,51,0.00
2015,08,26,03,52,0.00
2015,08,26,03,53,0.00
2015,08,26,03,54,0.00
2015,08,26,03,55,0.00
2015,08,26,03,56,0.00
2015,08,26,03,57,0.00
2015,08,26,03,58,0.00
2015,08,26,03,59,0.00
2015,08,26,04,00,0.00
2015,08,26,04,01,0.00
2015,08,26,04,02,0.00
2015,08,26,04,03,0.00
2015,08,26,04,04,0.00
2015,08,26,04,05,0.00
2015,08,26,04,06,0.00
2015,08,26,04,07,0.00
2015,08,26,04,08,0.00
2015,08,26,04,09,0.00
2015,08,26,04,10,0.00
2015,08,26,04,11,0.00
2015,08,26,04,12,0.00
2015,08,26,04,13,0.00
2015,08,26,04,14,0.00
2015,08,26,04,15,0.00
2015,08,26,04,16,0.00
2015,08,26,04,17,0.00
2015,08,26,04,18,0.00
2015,08,26,04,19,0.00
2015,08,26,04,20,0.00
2015,08,26,04,21,0.00
2015,08,26,04,22,0.00
2015,08,26,04,23,0.00
2015,08,26,04,24,0.00
2015,08,26,04,25,0.00
2015,08,26,04,26,0.00
2015,08,26,04,27,0.00
2015,08,26,04,28,0.00
2015,08,26,04,29,0.00
2015,08,26,04,30,0.00
2015,08,26,04,31,0.00
2015,08,26,04,32,0.00
2015,08,26,04,33,0.00
2015,08,26,04,34,0.00
2015,08,26,04,35,0.00
2015,08,26,04,36,0.00
2015,08,26,04,37,0.00
2015,08,26,04,38,0.00
2015,08,26,04,39,0.00
2015,08,26,04,40,0.00
2015,08,26,04,41,0.00
2015,08,26,04,42,0.00
2015,08,26,04,43,0.00
2015,08,26,04,44,0.00
2015,08,26,04,45,0.00
2015,08,26,04,46,0.00
2015,08,26,04,47,0.00
2015,08,26,04,48,0.00
2015,08,26,04,49,0.00
2015,08,26,04,50,0.00
2015,08,26,04,51,0.00
2015,08,26,04,52,0.00
2015,08,26,04,53,0.00
2015,08,26,04,54,0.00
2015,08,26,04,55,0.00
2015,08,26,04,56,0.00
2015,08,26,04,57,0.00
2015,08,26,04,58,0.00
2015,08,26,04,59,0.00
2015,08,26,05,00,0.00
2015,08,26,05,01,0.00
2015,08,26,05,02,0.00
2015,08,26,05,03,0.00
2015,08,26,05,04,0.00
2015,08,26,05,05,0.00
2015,08,26,05,06,0.00
2015,08,26,05,07,0.00
2015,08,26,05,08,0.00
2015,08,26,05,09,0.00
2015,08,26,05,10,0.00
2015,08,26,05,11,0.00
2015,08,26,05,12,0.00
2015,08,26,05,13,0.00
2015,08,26,05,14,0.00
2015,08,26,05,15,0.00
2015,08,26,05,16,0.00
2015,08,26,05,17,0.00
2015,08,26,05,18,0.00
2015,08,26,05,19,0.00
2015,08,26,05,20,0.00
2015,08,26,05,21,0.00
2015,08,26,05,22,0.00
2015,08,26,05,23,0.00
2015,08,26,05,24,0.00
2015,08,26,05,25,0.00
2015,08,26,05,26,0.00
2015,08,26,05,27,0.00
2015,08,26,05,28,0.00
2015,08,26,05,29,0.00
2015,08,26,05,30,0.00
2015,08,26,05,31,0.00
2015,08,26,05,32,0.00
2015,08,26,05,33,0.00
2015,08,26,05,34,0.00
2015,08,26,05,35,0.00
2015,08,26,05,36,0.00
2015,08,26,05,37,0.00
2015,08,26,05,38,0.00
2015,08,26,05,39,0.00
2015,08,26,05,40,0.00
2015,08,26,05,41,0.00
2015,08,26,05,42,0.00
2015,08,26,05,43,0.00
2015,08,26,05,44,0.00
2015,08,26,05,45,0.00
2015,08,26,05,46,0.00
2015,08,26,05,47,0.00
2015,08,26,05,48,0.00
2015,08,26,05,49,0.00
2015,08,26,05,50,0.00
2015,08,26,05,51,0.00
2015,08,26,05,52,0.00
2015,08,26,05,53,0.00
2015,08,26,05,54,0.00
2015,08,26,05,55,0.00
2015,08,26,05,56,0.00
2015,08,26,05,57,0.00
2015,08,26,05,58,0.00
2015,08,26,05,59,0.00
2015,08,26,06,00,0.00
2015,08,26,06,01,0.00
2015,08,26,06,02,0.00
2015,08,26,06,03,0.00
2015,08,26,06,04,0.00
2015,08,26,06,05,0.00
2015,08,26,06,06,0.00
2015,08,26,06,07,0.00
2015,08,26,06,08,0.00
2015,08,26,06,09,0.00
2015,08,26,06,10,0.00
2015,08,26,06,11,0.00
2015,08,26,06,12,0.00
2015,08,26,06,13,0.00
2015,08,26,06,14,0.00
2015,08,26,06,15,0.00
2015,08,26,06,16,0.00
2015,08,26,06,17,0.00
2015,08,26,06,18,0.00
2015,08,26,06,19,0.00
2015,08,26,06,20,0.00
2015,08,26,06,21,0.00
2015,08,26,06,22,0.00
2015,08,26,06,23,0.00
2015,08,26,06,24,0.00
2015,08,26,06,25,0.00
2015,08,26,06,26,0.00
2015,08,26,06,27,0.00
2015,08,26,06,28,0.00
2015,08,26,06,29,0.00
2015,08,26,06,30,0.00
2015,08,26,06,31,0.00
2015,08,26,06,32,0.00
2015,08,26,06,33,0.00
2015,08,26,06,34,0.00
2015,08,26,06,35,0.00
2015,08,26,06,36,0.00
2015,08,26,06,37,0.00
2015,08,26,06,38,0.00
2015,08,26,06,39,0.00
2015,08,26,06,40,0.00
2015,08,26,06,41,0.00
2015,08,26,06,42,0.00
2015,08,26,06,43,0.00
2015,08,26,06,44,0.00
2015,08,26,06,45,0.00
2015,08,26,06,46,0.00
2015,08,26,06,47,0.00
2015,08,26,06,48,0.00
2015,08,26,06,49,0.00
2015,08,26,06,50,0.00
2015,08,26,06,51,0.00
2015,08,26,06,52,0.00
2015,08,26,06,53,0.00
2015,08,26,06,54,0.00
2015,08,26,06,55,0.00
2015,08,26,06,56,0.00
2015,08,26,06,57,0.00
2015,08,26,06,58,0.00
2015,08,26,06,59,0.00
2015,08,26,07,00,0.00
2015,08,26,07,01,0.00
2015,08,26,07,02,0.00
2015,08,26,07,03,0.00
2015,08,26,07,04,0.00
2015,08,26,07,05,0.00
2015,08,26,07,06,0.00
2015,08,26,07,07,0.00
2015,08,26,07,08,0.00
2015,08,26,07,09,0.00
2015,08,26,07,10,0.00
2015,08,26,07,11,0.00
2015,08,26,07,12,0.00
2015,08,26,07,13,0.00
2015,08,26,07,14,0.00
2015,08,26,07,15,0.00
2015,08,26,07,16,0.00
2015,08,26,07,17,0.00
2015,08,26,07,18,0.00
2015,08,26,07,19,0.00
2015,08,26,07,20,0.00
2015,08,26,07,21,0.00
2015,08,26,07,22,0.00
2015,08,26,07,23,0.00
2015,08,26,07,24,0.00
2015,08,26,07,25,0.00
2015,08,26,07,26,0.00
2015,08,26,07,27,0.00
2015,08,26,07,28,0.00
2015,08,26,07,29,0.00
2015,08,26,07,30,0.00
2015,08,26,07,31,0.00
2015,08,26,07,32,0.00
2015,08,26,07,33,0.00
2015,08,26,07,34,0.00
2015,08,26,07,35,0.00
2015,08,26,07,36,0.00
2015,08,26,07,37,0.00
2015,08,26,07,38,0.00
2015,08,26,07,39,0.00
2015,08,26,07,40,0.00
2015,08,26,07,41,0.00
2015,08,26,07,42,0.00
2015,08,26,07,43,0.00
2015,08,26,07,44,0.00
2015,08,26,07,45,0.00
2015,08,26,07,46,0.00
2015,08,26,07,47,0.00
2015,08,26,07,48,0.00
2015,08,26,07,49,0.00
2015,08,26,07,50,0.00
2015,08,26,07,51,0.00
2015,08,26,07,52,0.00
2015,08,26,07,53,0.00
2015,08,26,07,54,0.00
2015,08,26,07,55,0.00
2015,08,26,07,56,0.00
2015,08,26,07,57,0.00
2015,08,26,07,58,0.00
2015,08,26,07,59,0.00
2015,08,26,08,00,0.00
2015,08,26,08,01,0.00
2015,08,26,08,02,2.60
2015,08,26,08,03,1.60
2015,08,26,08,04,1.60
2015,08,26,08,05,1.10
2015,08,26,08,06,1.70
2015,08,26,08,07,1.80
2015,08,26,08,08,1.40
2015,08,26,08,09,2.20
2015,08,26,08,10,1.80
2015,08,26,08,11,2.60
2015,08,26,08,12,2.60
2015,08,26,08,13,1.70
2015,08,26,08,14,1.90
2015,08,26,08,15,1.80
2015,08,26,08,16,1.70
2015,08,26,08,17,2.00
2015,08,26,08,18,1.50
2015,08,26,08,19,2.30
2015,08,26,08,20,2.30
2015,08,26,08,21,1.90
2015,08,26,08,22,1.60
2015,08,26,08,23,2.00
2015,08,26,08,24,0.90
2015,08,26,08,25,1.30
2015,08,26,08,26,2.80
2015,08,26,08,27,2.10
2015,08,26,08,28,2.60
2015,08,26,08,29,1.30
2015,08,26,08,30,0.70
2015,08,26,08,31,2.30
2015,08,26,08,32,1.60
2015,08,26,08,33,3.70
2015,08,26,08,34,1.60
2015,08,26,08,35,1.60
2015,08,26,08,36,2.80
2015,08,26,08,37,3.30
2015,08,26,08,38,2.30
2015,08,26,08,39,1.70
2015,08,26,08,40,2.30
2015,08,26,08,41,1.40
2015,08,26,08,42,2.20
2015,08,26,08,43,1.40
2015,08,26,08,44,2.90
2015,08,26,08,45,3.40
2015,08,26,08,46,2.50
2015,08,26,08,47,1.80
2015,08,26,08,48,2.10
2015,08,26,08,49,2.60
2015,08,26,08,50,3.60
2015,08,26,08,51,2.70
2015,08,26,08,52,3.20
2015,08,26,08,53,1.30
2015,08,26,08,54,1.60
2015,08,26,08,55,1.90
2015,08,26,08,56,2.00
2015,08,26,08,57,3.10
2015,08,26,08,58,2.00
2015,08,26,08,59,2.30
2015,08,26,09,00,2.20
2015,08,26,09,01,1.30
2015,08,26,09,02,1.50
2015,08,26,09,03,2.10
2015,08,26,09,04,1.20
2015,08,26,09,05,0.20
2015,08,26,09,06,1.00
2015,08,26,09,07,2.30
2015,08,26,09,08,1.20
2015,08,26,09,09,1.30
2015,08,26,09,10,2.70
2015,08,26,09,11,1.80
2015,08,26,09,12,0.70
2015,08,26,09,13,1.40
2015,08,26,09,14,1.60
2015,08,26,09,15,0.80
2015,08,26,09,16,1.00
2015,08,26,09,17,0.30
2015,08,26,09,18,1.80
2015,08,26,09,19,1.90
2015,08,26,09,20,1.60
2015,08,26,09,21,1.20
2015,08,26,09,22,1.70
2015,08,26,09,23,3.60
2015,08,26,09,24,2.60
2015,08,26,09,25,1.60
2015,08,26,09,26,2.10
2015,08,26,09,27,1.90
2015,08,26,09,28,0.00
2015,08,26,09,29,0.90
2015,08,26,09,30,0.50
2015,08,26,09,31,0.30
2015,08,26,09,32,2.60
2015,08,26,09,33,2.10
2015,08,26,09,34,2.00
2015,08,26,09,35,1.40
2015,08,26,09,36,2.70
2015,08,26,09,37,2.80
2015,08,26,09,38,2.30
2015,08,26,09,39,4.00
2015,08,26,09,40,3.80
2015,08,26,09,41,3.90
2015,08,26,09,42,4.40
2015,08,26,09,43,2.70
2015,08,26,09,44,2.70
2015,08,26,09,45,2.70
2015,08,26,09,46,3.10
2015,08,26,09,47,4.10
2015,08,26,09,48,3.90
2015,08,26,09,49,3.30
2015,08,26,09,50,3.20
2015,08,26,09,51,2.70
2015,08,26,09,52,2.70
2015,08,26,09,53,2.30
2015,08,26,09,54,1.30
2015,08,26,09,55,0.10
2015,08,26,09,56,2.80
2015,08,26,09,57,4.10
2015,08,26,09,58,2.40
2015,08,26,09,59,2.60
2015,08,26,10,00,0.50
2015,08,26,10,01,0.00
2015,08,26,10,02,1.10
2015,08,26,10,03,1.00
2015,08,26,10,04,2.60
2015,08,26,10,05,3.70
2015,08,26,10,06,2.40
2015,08,26,10,07,1.10
2015,08,26,10,08,3.30
2015,08,26,10,09,1.90
2015,08,26,10,10,2.30
2015,08,26,10,11,1.50
2015,08,26,10,12,3.80
2015,08,26,10,13,3.70
2015,08,26,10,14,2.80
2015,08,26,10,15,4.50
2015,08,26,10,16,1.90
2015,08,26,10,17,4.30
2015,08,26,10,18,2.90
2015,08,26,10,19,4.00
2015,08,26,10,20,2.50
2015,08,26,10,21,2.50
2015,08,26,10,22,1.90
2015,08,26,10,23,3.50
2015,08,26,10,24,3.00
2015,08,26,10,25,5.90
2015,08,26,10,26,4.10
2015,08,26,10,27,4.50
2015,08,26,10,28,2.90
2015,08,26,10,29,4.90
2015,08,26,10,30,2.70
2015,08,26,10,31,1.30
2015,08,26,10,32,3.00
2015,08,26,10,33,3.00
2015,08,26,10,34,1.60
2015,08,26,10,35,1.90
2015,08,26,10,36,1.40
2015,08,26,10,37,2.10
2015,08,26,10,38,3.50
2015,08,26,10,39,3.60
2015,08,26,10,40,2.30
2015,08,26,10,41,4.60
2015,08,26,10,42,6.70
2015,08,26,10,43,3.30
2015,08,26,10,44,3.40
2015,08,26,10,45,4.10
2015,08,26,10,46,3.10
2015,08,26,10,47,5.50
2015,08,26,10,48,4.30
2015,08,26,10,49,5.80
2015,08,26,10,50,4.60
2015,08,26,10,51,3.70
2015,08,26,10,52,4.90
2015,08,26,10,53,5.00
2015,08,26,10,54,3.50
2015,08,26,10,55,3.40
2015,08,26,10,56,4.10
2015,08,26,10,57,4.20
2015,08,26,10,58,3.70
2015,08,26,10,59,6.00
2015,08,26,11,00,5.60
2015,08,26,11,01,4.20
2015,08,26,11,02,4.10
2015,08,26,11,03,4.90
2015,08,26,11,04,2.80
2015,08,26,11,05,4.20
2015,08,26,11,06,1.40
2015,08,26,11,07,2.00
2015,08,26,11,08,2.10
2015,08,26,11,09,4.10
2015,08,26,11,10,3.80
2015,08,26,11,11,0.60
2015,08,26,11,12,2.30
2015,08,26,11,13,4.40
2015,08,26,11,14,3.10
2015,08,26,11,15,3.10
2015,08,26,11,16,2.60
2015,08,26,11,17,3.10
2015,08,26,11,18,2.50
2015,08,26,11,19,2.10
2015,08,26,11,20,1.90
2015,08,26,11,21,1.60
2015,08,26,11,22,1.80
2015,08,26,11,23,1.60
2015,08,26,11,24,2.70
2015,08,26,11,25,2.60
2015,08,26,11,26,3.70
2015,08,26,11,27,4.90
2015,08,26,11,28,4.30
2015,08,26,11,29,3.90
2015,08,26,11,30,2.80
2015,08,26,11,31,3.30
2015,08,26,11,32,1.70
2015,08,26,11,33,4.00
2015,08,26,11,34,4.20
2015,08,26,11,35,4.30
2015,08,26,11,36,3.60
2015,08,26,11,37,2.70
2015,08,26,11,38,3.10
2015,08,26,11,39,4.50
2015,08,26,11,40,2.30
2015,08,26,11,41,3.30
2015,08,26,11,42,1.60
2015,08,26,11,43,2.60
2015,08,26,11,44,2.50
2015,08,26,11,45,2.90
2015,08,26,11,46,1.90
2015,08,26,11,47,3.00
2015,08,26,11,48,5.80
2015,08,26,11,49,4.30
2015,08,26,11,50,3.90
2015,08,26,11,51,4.60
2015,08,26,11,52,2.90
2015,08,26,11,53,2.40
2015,08,26,11,54,4.20
2015,08,26,11,55,3.50
2015,08,26,11,56,4.40
2015,08,26,11,57,1.70
2015,08,26,11,58,1.00
2015,08,26,11,59,2.00
2015,08,26,12,00,4.80
2015,08,26,12,01,3.10
2015,08,26,12,02,1.40
2015,08,26,12,03,3.00
2015,08,26,12,04,4.30
2015,08,26,12,05,7.80
2015,08,26,12,06,6.20
2015,08,26,12,07,4.80
2015,08,26,12,08,5.90
2015,08,26,12,09,5.20
2015,08,26,12,10,3.30
2015,08,26,12,11,5.80
2015,08,26,12,12,4.00
2015,08,26,12,13,6.10
2015,08,26,12,14,5.50
2015,08,26,12,15,3.90
2015,08,26,12,16,5.30
2015,08,26,12,17,3.90
2015,08,26,12,18,4.10
2015,08,26,12,19,3.60
2015,08,26,12,20,4.30
2015,08,26,12,21,2.40
2015,08,26,12,22,3.20
2015,08,26,12,23,4.20
2015,08,26,12,24,2.10
2015,08,26,12,25,3.30
2015,08,26,12,26,3.60
2015,08,26,12,27,1.90
2015,08,26,12,28,1.70
2015,08,26,12,29,4.90
2015,08,26,12,30,5.90
2015,08,26,12,31,2.60
2015,08,26,12,32,2.00
2015,08,26,12,33,4.80
2015,08,26,12,34,4.50
2015,08,26,12,35,5.20
2015,08,26,12,36,5.80
2015,08,26,12,37,3.90
2015,08,26,12,38,4.60
2015,08,26,12,39,5.00
2015,08,26,12,40,5.00
2015,08,26,12,41,4.00
2015,08,26,12,42,4.50
2015,08,26,12,43,2.60
2015,08,26,12,44,3.60
2015,08,26,12,45,3.30
2015,08,26,12,46,6.30
2015,08,26,12,47,6.30
2015,08,26,12,48,4.20
2015,08,26,12,49,3.40
2015,08,26,12,50,2.40
2015,08,26,12,51,3.60
2015,08,26,12,52,4.10
2015,08,26,12,53,2.60
2015,08,26,12,54,3.50
2015,08,26,12,55,4.30
2015,08,26,12,56,4.60
2015,08,26,12,57,4.70
2015,08,26,12,58,3.50
2015,08,26,12,59,7.50
2015,08,26,13,00,5.50
2015,08,26,13,01,3.70
2015,08,26,13,02,3.20
2015,08,26,13,03,6.70
2015,08,26,13,04,7.90
2015,08,26,13,05,5.40
2015,08,26,13,06,4.70
2015,08,26,13,07,6.60
2015,08,26,13,08,7.90
2015,08,26,13,09,8.90
2015,08,26,13,10,7.40
2015,08,26,13,11,3.90
2015,08,26,13,12,6.70
2015,08,26,13,13,6.90
2015,08,26,13,14,6.60
2015,08,26,13,15,3.70
2015,08,26,13,16,6.60
2015,08,26,13,17,8.80
2015,08,26,13,18,10.80
2015,08,26,13,19,11.60
2015,08,26,13,20,5.20
2015,08,26,13,21,6.80
2015,08,26,13,22,6.90
2015,08,26,13,23,4.60
2015,08,26,13,24,5.50
2015,08,26,13,25,8.20
2015,08,26,13,26,6.90
2015,08,26,13,27,8.40
2015,08,26,13,28,11.50
2015,08,26,13,29,7.50
2015,08,26,13,30,4.00
2015,08,26,13,31,4.90
2015,08,26,13,32,7.00
2015,08,26,13,33,5.70
2015,08,26,13,34,3.80
2015,08,26,13,35,4.60
2015,08,26,13,36,7.10
2015,08,26,13,37,9.70
2015,08,26,13,38,7.90
2015,08,26,13,39,6.10
2015,08,26,13,40,5.80
2015,08,26,13,41,7.60
2015,08,26,13,42,7.30
2015,08,26,13,43,6.10
2015,08,26,13,44,7.00
2015,08,26,13,45,9.70
2015,08,26,13,46,11.00
2015,08,26,13,47,6.90
2015,08,26,13,48,6.50
2015,08,26,13,49,7.00
2015,08,26,13,50,7.40
2015,08,26,13,51,7.20
2015,08,26,13,52,6.20
2015,08,26,13,53,5.80
2015,08,26,13,54,5.00
2015,08,26,13,55,7.70
2015,08,26,13,56,9.80
2015,08,26,13,57,7.00
2015,08,26,13,58,6.20
2015,08,26,13,59,10.00
2015,08,26,14,00,4.90
2015,08,26,14,01,4.30
2015,08,26,14,02,4.30
2015,08,26,14,03,7.60
2015,08,26,14,04,10.80
2015,08,26,14,05,7.90
2015,08,26,14,06,5.10
2015,08,26,14,07,8.00
2015,08,26,14,08,8.70
2015,08,26,14,09,7.20
2015,08,26,14,10,8.30
2015,08,26,14,11,10.10
2015,08,26,14,12,7.30
2015,08,26,14,13,8.90
2015,08,26,14,14,7.80
2015,08,26,14,15,7.80
2015,08,26,14,16,3.90
2015,08,26,14,17,6.70
2015,08,26,14,18,3.30
2015,08,26,14,19,3.60
2015,08,26,14,20,5.40
2015,08,26,14,21,3.00
2015,08,26,14,22,0.80
2015,08,26,14,23,3.50
2015,08,26,14,24,6.60
2015,08,26,14,25,9.20
2015,08,26,14,26,8.10
2015,08,26,14,27,5.80
2015,08,26,14,28,7.90
2015,08,26,14,29,5.80
2015,08,26,14,30,10.00
2015,08,26,14,31,10.10
2015,08,26,14,32,9.30
2015,08,26,14,33,6.20
2015,08,26,14,34,5.90
2015,08,26,14,35,6.90
2015,08,26,14,36,4.80
2015,08,26,14,37,6.30
2015,08,26,14,38,6.10
2015,08,26,14,39,8.80
2015,08,26,14,40,6.90
2015,08,26,14,41,4.80
2015,08,26,14,42,5.70
2015,08,26,14,43,6.90
2015,08,26,14,44,4.50
2015,08,26,14,45,7.30
2015,08,26,14,46,5.20
2015,08,26,14,47,6.90
2015,08,26,14,48,8.50
2015,08,26,14,49,6.70
2015,08,26,14,50,3.50
2015,08,26,14,51,3.20
2015,08,26,14,52,5.10
2015,08,26,14,53,8.50
2015,08,26,14,54,8.40
2015,08,26,14,55,6.90
2015,08,26,14,56,5.40
2015,08,26,14,57,5.40
2015,08,26,14,58,6.10
2015,08,26,14,59,6.80
2015,08,26,15,00,7.00
2015,08,26,15,01,4.80
2015,08,26,15,02,4.90
2015,08,26,15,03,7.00
2015,08,26,15,04,7.30
2015,08,26,15,05,8.30
2015,08,26,15,06,6.50
2015,08,26,15,07,6.70
2015,08,26,15,08,6.90
2015,08,26,15,09,8.90
2015,08,26,15,10,7.70
2015,08,26,15,11,6.40
2015,08,26,15,12,7.30
2015,08,26,15,13,5.80
2015,08,26,15,14,7.20
2015,08,26,15,15,6.00
2015,08,26,15,16,6.90
2015,08,26,15,17,6.40
2015,08,26,15,18,8.40
2015,08,26,15,19,7.60
2015,08,26,15,20,5.60
2015,08,26,15,21,8.90
2015,08,26,15,22,6.80
2015,08,26,15,23,6.30
2015,08,26,15,24,4.70
2015,08,26,15,25,6.70
2015,08,26,15,26,6.70
2015,08,26,15,27,6.40
2015,08,26,15,28,6.80
2015,08,26,15,29,5.50
2015,08,26,15,30,3.90
2015,08,26,15,31,5.60
2015,08,26,15,32,6.60
2015,08,26,15,33,6.80
2015,08,26,15,34,5.50
2015,08,26,15,35,5.50
2015,08,26,15,36,3.40
2015,08,26,15,37,2.50
2015,08,26,15,38,2.10
2015,08,26,15,39,1.90
2015,08,26,15,40,6.70
2015,08,26,15,41,4.30
2015,08,26,15,42,6.00
2015,08,26,15,43,4.90
2015,08,26,15,44,7.20
2015,08,26,15,45,6.60
2015,08,26,15,46,3.90
2015,08,26,15,47,5.40
2015,08,26,15,48,4.60
2015,08,26,15,49,3.80
2015,08,26,15,50,3.60
2015,08,26,15,51,5.00
2015,08,26,15,52,3.00
2015,08,26,15,53,3.70
2015,08,26,15,54,2.00
2015,08,26,15,55,1.90
2015,08,26,15,56,3.60
2015,08,26,15,57,5.30
2015,08,26,15,58,3.90
2015,08,26,15,59,9.70
2015,08,26,16,00,5.50
2015,08,26,16,01,9.40
2015,08,26,16,02,9.10
2015,08,26,16,03,9.10
2015,08,26,16,04,6.90
2015,08,26,16,05,5.70
2015,08,26,16,06,3.70
2015,08,26,16,07,2.40
2015,08,26,16,08,4.20
2015,08,26,16,09,4.00
2015,08,26,16,10,4.90
2015,08,26,16,11,6.60
2015,08,26,16,12,5.80
2015,08,26,16,13,2.50
2015,08,26,16,14,3.00
2015,08,26,16,15,1.90
2015,08,26,16,16,2.70
2015,08,26,16,17,2.00
2015,08,26,16,18,3.80
2015,08,26,16,19,3.50
2015,08,26,16,20,5.30
2015,08,26,16,21,6.60
2015,08,26,16,22,6.90
2015,08,26,16,23,4.50
2015,08,26,16,24,3.20
2015,08,26,16,25,2.20
2015,08,26,16,26,5.80
2015,08,26,16,27,6.30
2015,08,26,16,28,5.50
2015,08,26,16,29,5.10
2015,08,26,16,30,5.20
2015,08,26,16,31,4.00
2015,08,26,16,32,5.80
2015,08,26,16,33,5.40
2015,08,26,16,34,4.40
2015,08,26,16,35,2.90
2015,08,26,16,36,4.80
2015,08,26,16,37,4.50
2015,08,26,16,38,5.20
2015,08,26,16,39,4.30
2015,08,26,16,40,2.90
2015,08,26,16,41,3.00
2015,08,26,16,42,2.40
2015,08,26,16,43,2.00
2015,08,26,16,44,2.00
2015,08,26,16,45,1.70
2015,08,26,16,46,1.70
2015,08,26,16,47,3.00
2015,08,26,16,48,2.10
2015,08,26,16,49,2.00
2015,08,26,16,50,3.90
2015,08,26,16,51,3.90
2015,08,26,16,52,3.80
2015,08,26,16,53,4.70
2015,08,26,16,54,7.30
2015,08,26,16,55,5.20
2015,08,26,16,56,1.00
2015,08,26,16,57,0.30
2015,08,26,16,58,1.10
2015,08,26,16,59,0.70
2015,08,26,17,00,3.20
2015,08,26,17,01,1.40
2015,08,26,17,02,3.60
2015,08,26,17,03,3.50
2015,08,26,17,04,2.80
2015,08,26,17,05,3.30
2015,08,26,17,06,2.70
2015,08,26,17,07,2.60
2015,08,26,17,08,3.10
2015,08,26,17,09,3.40
2015,08,26,17,10,4.50
2015,08,26,17,11,3.10
2015,08,26,17,12,2.80
2015,08,26,17,13,3.90
2015,08,26,17,14,6.60
2015,08,26,17,15,5.70
2015,08,26,17,16,1.80
2015,08,26,17,17,1.50
2015,08,26,17,18,0.70
2015,08,26,17,19,0.00
2015,08,26,17,20,0.00
2015,08,26,17,21,0.20
2015,08,26,17,22,0.60
2015,08,26,17,23,1.10
2015,08,26,17,24,3.20
2015,08,26,17,25,2.00
2015,08,26,17,26,0.80
2015,08,26,17,27,0.70
2015,08,26,17,28,1.20
2015,08,26,17,29,0.70
2015,08,26,17,30,0.50
2015,08,26,17,31,0.60
2015,08,26,17,32,0.40
2015,08,26,17,33,0.20
2015,08,26,17,34,0.50
2015,08,26,17,35,1.00
2015,08,26,17,36,0.40
2015,08,26,17,37,0.00
2015,08,26,17,38,0.00
2015,08,26,17,39,0.60
2015,08,26,17,40,1.00
2015,08,26,17,41,0.70
2015,08,26,17,42,0.40
2015,08,26,17,43,0.20
2015,08,26,17,44,0.50
2015,08,26,17,45,0.20
2015,08,26,17,46,0.20
2015,08,26,17,47,0.00
2015,08,26,17,48,0.20
2015,08,26,17,49,0.40
2015,08,26,17,50,0.40
2015,08,26,17,51,1.10
2015,08,26,17,52,1.00
2015,08,26,17,53,0.40
2015,08,26,17,54,1.10
2015,08,26,17,55,0.80
2015,08,26,17,56,1.10
2015,08,26,17,57,1.00
2015,08,26,17,58,1.00
2015,08,26,17,59,0.70
2015,08,26,18,00,0.30
2015,08,26,18,01,0.00
2015,08,26,18,02,0.60
2015,08,26,18,03,0.90
2015,08,26,18,04,0.90
2015,08,26,18,05,1.00
2015,08,26,18,06,0.60